Simultaneous Nadir Overpasses (SNOs) Predictions

Prediction of SNOs between GOES-16 and METOP-C Satellite Orbit:

Table of predicted SNOs for the next 14.0 days since TLE Epoch: 6/20/2020
Index Date Time (GOES-16) GOES-16 Lat,Lon METOP-C Lat,Lon Distance(km) Time Diff (sec)
1 06/20/2020 02:48:38 -0.02, -75.19 -0.98, -79.46 486.09 80
2 06/21/2020 02:30:39 -0.03, -75.19 0.13, -74.46 83.42 80
3 06/22/2020 14:46:51 0.02, -75.22 0.87, -79.03 434.18 80
4 06/23/2020 14:28:51 0.02, -75.22 -0.24, -74.03 135.46 80
5 06/25/2020 02:47:52 -0.02, -75.21 -0.77, -78.63 388.85 80
6 06/26/2020 02:24:32 -0.02, -75.22 0.34, -73.64 181.12 80
7 06/27/2020 14:43:24 0.02, -75.25 0.67, -78.20 335.63 80
8 06/28/2020 14:25:25 0.02, -75.27 -0.44, -73.20 234.75 80
9 06/30/2020 02:44:24 -0.02, -75.27 -0.61, -77.79 288.30 80
10 07/01/2020 02:21:06 -0.02, -75.28 0.56, -72.81 282.36 80
11 07/02/2020 14:39:58 0.01, -75.32 0.46, -77.37 233.70 80
12 07/03/2020 14:19:19 0.01, -75.34 -0.65, -72.38 337.05 80




NCC Satellite Simultaneous Nadir Overpasses (SNOs) Prediction Service
